DateTimeUTC,F1_A11,F1_S11,BsB_S11,BsG_S11,BsR_S11,BbsB_S11,BbsG_S11,BbsR_S11,BaB_A11,BaG_A11,BaR_A11,Tu_S11,T_S11,Uu_S11,U_S11,P_S11,T1_A11
2021-05-15T10:00:00Z,00040200,21000000,,,,,,,-000.01,-000.36,0000.15,15.1,22.0,01.2,00.8,0674.1,30.8
2021-05-15T10:01:00Z,00040200,21000000,,,,,,,0000.19,0000.44,0000.10,15.1,22.1,01.2,00.8,0674.1,30.8
2021-05-15T10:02:00Z,00040200,21000000,,,,,,,0000.24,-000.05,-000.08,15.1,22.1,00.9,00.6,0674.1,30.8
2021-05-15T10:03:00Z,00040200,61000000,,,,,,,0000.32,0000.11,0000.16,15.1,22.1,00.9,00.6,0674.1,30.8
2021-05-15T10:04:00Z,00040200,41000000,0000.05,-000.24,-000.04,0000.79,0000.01,-000.05,-000.50,0000.08,-000.12,15.3,21.9,01.1,00.7,0675.1,30.8
2021-05-15T10:05:00Z,00040200,01000000,-000.50,0000.13,0000.15,0000.27,-000.01,0000.17,-000.24,-000.20,-000.07,15.3,21.8,01.1,00.7,0675.2,30.7
2021-05-15T10:06:00Z,00040200,01000000,-000.22,-000.04,0000.33,-000.03,-000.16,0000.06,0000.50,0000.05,-000.32,15.2,21.8,01.0,00.7,0675.2,30.7
2021-05-15T10:07:00Z,00040200,01000000,-000.32,0000.08,-000.02,-000.28,-000.10,0000.03,0000.28,0000.06,0000.64,15.2,21.8,01.2,00.8,0675.1,30.7
2021-05-15T10:08:00Z,00040200,01000000,0000.03,0000.22,0000.06,-000.33,-000.12,0000.01,-000.18,0000.23,-000.10,15.2,21.7,01.1,00.7,0675.2,30.7
2021-05-15T10:09:00Z,00040200,01000000,-000.51,-000.02,0000.21,0000.18,0000.00,0000.02,0000.23,-000.25,-000.18,15.1,21.7,01.1,00.8,0675.1,30.7
2021-05-15T10:10:00Z,00040200,01000000,-000.23,-000.02,0000.09,0000.05,0000.12,0000.13,-000.25,0000.32,0000.40,15.2,21.7,01.2,00.8,0675.1,30.7
2021-05-15T10:11:00Z,00040200,01000000,0000.28,-000.22,0000.05,-000.08,-000.17,0000.48,0000.04,0000.15,-000.02,15.2,21.7,01.1,00.7,0675.2,30.8
2021-05-15T10:12:00Z,00040200,01000000,0000.31,0000.14,-000.06,0000.15,0000.03,-000.06,0000.85,0000.41,0000.79,15.2,21.7,01.2,00.8,0675.2,30.8
2021-05-15T10:13:00Z,00040200,01000000,-000.23,0000.25,0000.10,0000.41,-000.16,0000.15,0000.73,0000.72,0000.22,15.3,21.8,01.4,00.9,0675.2,30.8
2021-05-15T10:14:00Z,00040200,01000000,0001.11,0000.58,0000.34,-000.29,-000.17,0000.12,0000.94,0001.04,0000.90,15.4,21.8,01.5,01.0,0675.1,30.8
2021-05-15T10:15:00Z,00040200,01000000,0001.32,0001.17,0000.99,0000.57,0000.19,0000.33,0002.00,0001.38,0001.21,15.4,21.9,01.8,01.2,0675.1,30.8
2021-05-15T10:16:00Z,00040200,01000000,0001.68,0001.05,0000.66,0000.24,0000.22,0000.28,0001.90,0001.88,0001.53,15.4,21.9,02.3,01.5,0675.1,30.8
2021-05-15T10:17:00Z,00040200,00000000,0001.41,0001.22,0000.80,0000.15,0000.34,-000.14,0001.37,0001.21,0000.93,15.5,21.9,02.7,01.8,0675.1,30.8
2021-05-15T10:18:00Z,00040200,00000000,0002.14,0000.81,0000.73,0000.47,0000.18,0000.41,0000.35,0000.60,-000.32,15.5,21.9,02.8,01.9,0675.1,30.8
2021-05-15T10:19:00Z,00040200,00000000,0001.51,0001.31,0000.81,-000.02,0000.21,-000.06,-000.36,-000.54,-000.06,15.4,21.9,02.5,01.7,0675.1,30.8
2021-05-15T10:20:00Z,00040200,00000000,0001.98,0001.08,0000.85,0000.36,0000.01,0000.15,0000.93,0001.03,0000.85,15.4,21.8,02.5,01.7,0675.1,30.8
2021-05-15T10:21:00Z,00040200,00000000,0001.83,0001.40,0001.08,0000.43,0000.02,0000.04,0001.13,0000.86,0000.65,15.3,21.8,02.7,01.8,0675.1,30.7
2021-05-15T10:22:00Z,00040200,00000000,0001.78,0001.23,0000.80,0000.83,0000.10,0000.04,0000.47,0000.56,0000.17,15.3,21.8,02.6,01.8,0675.1,30.7
2021-05-15T10:23:00Z,00040200,00000000,0000.06,0000.52,-000.02,0000.75,-000.06,0000.08,-000.23,-000.42,0000.06,15.3,21.7,02.5,01.7,0675.1,30.7
2021-05-15T10:24:00Z,00040200,00000000,0001.22,0000.64,0000.62,-000.11,0000.12,0000.23,0000.02,0000.09,-000.27,15.3,21.7,02.3,01.6,0675.1,30.7
2021-05-15T10:25:00Z,00040200,00000000,0000.74,0000.76,0000.53,0000.24,0000.07,0000.23,0000.14,-000.10,0000.45,15.3,21.7,02.2,01.5,0675.2,30.7
2021-05-15T10:26:00Z,00040200,00000000,0001.83,0001.29,0000.85,0000.18,0000.12,0000.21,0000.95,0001.22,0000.78,15.3,21.8,02.1,01.4,0675.1,30.8
2021-05-15T10:27:00Z,00040200,00000000,0001.68,0001.28,0000.64,0000.37,0000.30,0000.20,0000.77,0000.79,0000.39,15.4,21.8,02.4,01.6,0675.1,30.8
2021-05-15T10:28:00Z,00040200,00000000,0001.53,0001.11,0000.87,0000.41,0000.20,-000.18,0000.81,0000.97,0000.84,15.4,21.8,02.4,01.6,0675.1,30.8
2021-05-15T10:29:00Z,00040200,00000000,0001.57,0001.29,0000.73,0000.25,0000.28,0000.11,0001.01,0000.99,0000.59,15.5,21.9,02.5,01.7,0675.1,30.8
2021-05-15T10:30:00Z,00040200,00000000,0001.67,0000.69,0000.43,0000.21,-000.05,0000.20,0000.32,-000.45,-000.08,15.5,21.9,02.4,01.6,0675.1,30.8
2021-05-15T10:31:00Z,00040200,00000000,-000.11,0000.45,0000.11,-000.18,-000.13,0000.05,-000.29,0000.08,0000.06,15.5,21.9,02.3,01.5,0675.2,30.8
2021-05-15T10:32:00Z,00040200,00000000,0001.28,0000.63,0000.48,0000.15,0000.11,0000.26,-000.43,0000.01,-000.18,15.5,21.9,02.1,01.4,0675.2,30.8
2021-05-15T10:33:00Z,00040200,00000000,0000.05,0000.60,0000.55,0000.34,-000.09,0000.14,0000.24,-000.21,-000.24,15.4,21.8,02.0,01.3,0675.2,30.8
2021-05-15T10:34:00Z,00040200,01000000,0000.55,0000.43,0000.40,0000.25,-000.12,0000.08,0000.28,0000.22,0000.27,15.4,21.8,01.8,01.2,0675.2,30.7
2021-05-15T10:35:00Z,00040200,01000000,0000.05,0000.09,0000.12,-000.16,-000.23,0000.17,0000.50,0000.26,0000.09,15.4,21.8,01.9,01.2,0675.2,30.7
2021-05-15T10:36:00Z,00040200,00000000,-000.28,0000.61,0000.31,-000.19,-000.01,0000.07,0001.35,0001.30,0001.26,15.3,21.8,02.2,01.5,0675.2,30.7
2021-05-15T10:37:00Z,00040200,00000000,0000.80,0000.48,0000.59,0000.71,-000.06,0000.16,0001.15,0001.17,0000.95,15.3,21.7,02.5,01.7,0675.2,30.7
2021-05-15T10:38:00Z,00040200,00000000,0000.96,0000.69,0000.32,0000.27,0000.15,0000.12,0000.65,0000.34,-000.16,15.3,21.7,02.8,01.9,0675.2,30.7
2021-05-15T10:39:00Z,00040200,00000000,0000.86,0000.69,0000.86,0000.14,-000.02,0000.34,-000.28,0000.04,0000.11,15.3,21.7,02.7,01.8,0675.2,30.7
2021-05-15T10:40:00Z,00040200,00000000,0000.82,0000.14,-000.06,-000.19,-000.07,0000.18,0000.03,-000.05,0000.15,15.3,21.7,02.6,01.7,0675.2,30.7
2021-05-15T10:41:00Z,00040200,00000000,-000.10,-000.17,0000.03,-000.24,-000.03,0000.26,-000.25,-000.20,-000.15,15.3,21.7,02.5,01.7,0675.2,30.8
2021-05-15T10:42:00Z,00040200,00000000,0000.67,-000.17,-000.03,0000.11,-000.21,-000.01,0000.25,0000.51,-000.03,15.4,21.7,02.4,01.6,0675.2,30.8
2021-05-15T10:43:00Z,00040200,00000000,0000.28,0000.23,0000.25,0000.42,0000.11,0000.20,0000.14,0000.00,0000.57,15.4,21.8,02.5,01.7,0675.1,30.8
2021-05-15T10:44:00Z,00040200,00000000,0000.39,0000.19,0000.45,0000.17,-000.13,0000.12,0000.19,0000.36,0000.19,15.5,21.8,02.6,01.8,0675.1,30.8
2021-05-15T10:45:00Z,00040200,00000000,0000.77,0000.35,0000.46,0000.14,-000.09,0000.10,0000.49,0000.31,0000.15,15.5,21.8,02.6,01.8,0675.1,30.8
2021-05-15T10:46:00Z,00040200,00000000,0000.50,0000.23,0000.27,-000.10,0000.03,0000.01,0000.59,0000.63,0000.41,15.5,21.8,02.6,01.7,0675.1,30.8
2021-05-15T10:47:00Z,00040200,00000000,0000.40,0000.61,0000.63,0000.14,0000.14,0000.18,0000.28,0000.25,0000.37,15.5,21.8,02.7,01.9,0675.1,30.8
2021-05-15T10:48:00Z,00040200,00000000,0000.79,0000.60,0000.37,-000.12,-000.23,-000.03,0000.40,0000.29,0000.05,15.5,21.8,02.7,01.8,0675.2,30.8
2021-05-15T10:49:00Z,00040200,00000000,0000.91,0000.82,0000.56,0000.51,-000.01,0000.27,0000.32,-000.12,0000.41,15.4,21.8,02.7,01.8,0675.2,30.7
2021-05-15T10:50:00Z,00040200,00000000,0000.99,0000.72,0000.34,0000.45,-000.02,0000.16,0000.75,0000.88,0000.40,15.4,21.8,02.8,01.9,0675.2,30.7
2021-05-15T10:51:00Z,00040200,00000000,0001.80,0000.77,0000.60,-000.10,0000.08,0000.19,0000.54,0000.16,0000.20,15.4,21.7,02.8,01.9,0675.2,30.7
2021-05-15T10:52:00Z,00040200,00000000,0001.02,0000.53,0000.52,0000.10,0000.16,-000.00,0000.01,0000.28,0000.38,15.3,21.7,02.8,01.9,0675.2,30.7
2021-05-15T10:53:00Z,00040200,00000000,0001.08,0000.60,0000.63,0000.22,-000.02,0000.32,0000.08,0000.31,-000.30,15.3,21.7,02.8,01.9,0675.2,30.7
2021-05-15T10:54:00Z,00040200,00000000,0000.71,0000.88,0000.36,0000.36,-000.03,0000.04,0000.53,0000.04,0000.45,15.3,21.7,02.7,01.8,0675.2,30.7
2021-05-15T10:55:00Z,00040200,00000000,0001.68,0000.80,0000.68,0000.42,0000.06,0000.10,-000.01,0000.65,0000.28,15.3,21.7,02.6,01.7,0675.2,30.7
2021-05-15T10:56:00Z,00040200,00000000,0001.53,0000.66,0000.57,0000.01,0000.28,0000.37,0000.71,0000.09,0000.41,15.3,21.7,02.7,01.8,0675.2,30.8
2021-05-15T10:57:00Z,00040200,40000000,,,,,,,-000.93,-000.54,-000.63,15.4,21.7,02.5,01.7,0675.2,30.8
2021-05-15T10:58:00Z,00040200,60000000,,,,,,,0000.24,0000.34,0000.08,15.2,21.9,02.0,01.3,0674.2,30.8
2021-05-15T10:59:00Z,00040200,20000000,,,,,,,0000.27,-000.10,0000.05,15.2,22.0,02.1,01.4,0674.2,30.8
